Time,TemperatureF,DewpointF,PressureIn,WindDirection,WindDirectionDegrees,WindSpeedMPH,WindSpeedGustMPH,Humidity,HourlyPrecipIn,Conditions,Clouds,dailyrainin,SoftwareType,DateUTC
2013-10-06 00:01:00,57.4,44.0,29.48,WSW,247,0.0,0.0,60,0.00,,,0.00,Rainwise IP-100,2013-10-06 04:01:00,
2013-10-06 00:06:00,57.4,44.0,29.47,WSW,247,2.0,2.0,61,0.00,,,0.00,Rainwise IP-100,2013-10-06 04:06:00,
2013-10-06 00:11:00,57.7,44.0,29.48,WSW,247,2.0,2.0,60,0.00,,,0.00,Rainwise IP-100,2013-10-06 04:11:00,
2013-10-06 00:16:00,57.6,43.0,29.47,WSW,247,0.0,3.0,59,0.00,,,0.00,Rainwise IP-100,2013-10-06 04:16:00,
2013-10-06 00:21:00,57.5,43.0,29.47,WSW,247,0.0,0.0,59,0.00,,,0.00,Rainwise IP-100,2013-10-06 04:21:00,
2013-10-06 00:26:00,57.5,43.0,29.48,WSW,247,0.0,0.0,59,0.00,,,0.00,Rainwise IP-100,2013-10-06 04:26:00,
2013-10-06 00:32:00,57.3,43.0,29.47,WSW,247,1.0,1.0,60,0.00,,,0.00,Rainwise IP-100,2013-10-06 04:32:00,
2013-10-06 00:37:00,57.3,43.0,29.47,WSW,247,0.0,2.0,60,0.00,,,0.00,Rainwise IP-100,2013-10-06 04:37:00,
2013-10-06 00:42:00,57.2,43.0,29.47,WSW,247,0.0,0.0,60,0.00,,,0.00,Rainwise IP-100,2013-10-06 04:42:00,
2013-10-06 00:47:00,57.2,43.0,29.47,WSW,247,0.0,0.0,60,0.00,,,0.00,Rainwise IP-100,2013-10-06 04:47:00,
2013-10-06 00:52:00,57.1,43.0,29.48,WSW,247,0.0,0.0,60,0.00,,,0.00,Rainwise IP-100,2013-10-06 04:52:00,
2013-10-06 00:57:00,57.1,43.0,29.47,WSW,247,0.0,0.0,60,0.00,,,0.00,Rainwise IP-100,2013-10-06 04:57:00,
2013-10-06 01:02:00,57.1,43.0,29.48,WSW,247,0.0,0.0,60,0.00,,,0.00,Rainwise IP-100,2013-10-06 05:02:00,
2013-10-06 01:07:00,57.1,43.0,29.48,WSW,247,0.0,0.0,59,0.00,,,0.00,Rainwise IP-100,2013-10-06 05:07:00,
2013-10-06 01:13:00,57.0,43.0,29.48,WSW,247,0.0,0.0,59,0.00,,,0.00,Rainwise IP-100,2013-10-06 05:13:00,
2013-10-06 01:18:00,57.1,43.0,29.48,WSW,247,0.0,0.0,59,0.00,,,0.00,Rainwise IP-100,2013-10-06 05:18:00,
2013-10-06 01:23:00,57.1,43.0,29.48,WSW,247,0.0,0.0,59,0.00,,,0.00,Rainwise IP-100,2013-10-06 05:23:00,
2013-10-06 01:28:00,57.1,43.0,29.48,WSW,247,0.0,0.0,59,0.00,,,0.00,Rainwise IP-100,2013-10-06 05:28:00,
2013-10-06 01:33:00,57.2,43.0,29.48,WSW,247,0.0,2.0,60,0.00,,,0.00,Rainwise IP-100,2013-10-06 05:33:00,
2013-10-06 01:38:00,57.2,43.0,29.48,WSW,247,0.0,3.0,60,0.00,,,0.00,Rainwise IP-100,2013-10-06 05:38:00,
2013-10-06 01:43:00,57.1,43.0,29.48,WSW,247,0.0,2.0,59,0.00,,,0.00,Rainwise IP-100,2013-10-06 05:43:00,
2013-10-06 01:49:00,57.3,43.0,29.48,WSW,247,0.0,0.0,59,0.00,,,0.00,Rainwise IP-100,2013-10-06 05:49:00,
2013-10-06 01:54:00,57.3,42.0,29.48,WSW,247,0.0,0.0,58,0.06,,,0.02,Rainwise IP-100,2013-10-06 05:54:00,
2013-10-06 01:59:00,57.3,43.0,29.48,WSW,247,0.0,0.0,59,0.18,,,0.03,Rainwise IP-100,2013-10-06 05:59:00,
2013-10-06 02:04:00,57.3,42.0,29.48,WSW,247,0.0,0.0,58,0.06,,,0.03,Rainwise IP-100,2013-10-06 06:04:00,
2013-10-06 02:09:00,57.0,43.0,29.48,WSW,247,0.0,0.0,59,0.00,,,0.03,Rainwise IP-100,2013-10-06 06:09:00,
2013-10-06 02:14:00,57.1,43.0,29.48,WSW,247,0.0,3.0,60,0.00,,,0.03,Rainwise IP-100,2013-10-06 06:14:00,
2013-10-06 02:19:00,57.1,43.0,29.47,WSW,247,1.0,3.0,60,0.00,,,0.03,Rainwise IP-100,2013-10-06 06:19:00,
2013-10-06 02:24:00,57.1,44.0,29.47,WSW,247,0.0,2.0,61,0.00,,,0.03,Rainwise IP-100,2013-10-06 06:24:00,
2013-10-06 02:30:00,56.9,43.0,29.47,WSW,247,0.0,0.0,60,0.00,,,0.03,Rainwise IP-100,2013-10-06 06:30:00,
2013-10-06 02:35:00,56.9,43.0,29.47,WSW,247,0.0,0.0,60,0.06,,,0.04,Rainwise IP-100,2013-10-06 06:35:00,
2013-10-06 02:40:00,56.9,43.0,29.47,WSW,247,0.0,0.0,60,0.06,,,0.04,Rainwise IP-100,2013-10-06 06:40:00,
2013-10-06 02:45:00,56.9,43.0,29.47,WSW,247,0.0,0.0,60,0.00,,,0.04,Rainwise IP-100,2013-10-06 06:45:00,
2013-10-06 02:50:00,56.9,43.0,29.47,WSW,247,0.0,0.0,60,0.00,,,0.04,Rainwise IP-100,2013-10-06 06:50:00,
2013-10-06 02:55:00,56.9,43.0,29.47,WSW,247,0.0,0.0,60,0.00,,,0.04,Rainwise IP-100,2013-10-06 06:55:00,
2013-10-06 03:00:00,56.9,44.0,29.47,WSW,247,0.0,0.0,61,0.00,,,0.04,Rainwise IP-100,2013-10-06 07:00:00,
2013-10-06 03:06:00,56.9,43.0,29.47,WSW,247,0.0,0.0,60,0.00,,,0.04,Rainwise IP-100,2013-10-06 07:06:00,
2013-10-06 03:11:00,56.9,43.0,29.47,WSW,247,0.0,0.0,60,0.00,,,0.04,Rainwise IP-100,2013-10-06 07:11:00,
2013-10-06 03:16:00,56.8,43.0,29.47,WSW,247,0.0,0.0,60,0.00,,,0.04,Rainwise IP-100,2013-10-06 07:16:00,
2013-10-06 03:18:00,56.9,43.0,29.47,WSW,247,0.0,0.0,59,0.00,,,0.04,Rainwise IP-100,2013-10-06 07:18:00,
2013-10-06 03:23:00,56.8,43.0,29.47,WSW,247,0.0,0.0,60,0.00,,,0.04,Rainwise IP-100,2013-10-06 07:23:00,
2013-10-06 03:28:00,56.8,43.0,29.47,WSW,247,0.0,0.0,60,0.00,,,0.04,Rainwise IP-100,2013-10-06 07:28:00,
2013-10-06 03:33:00,56.8,43.0,29.47,WSW,247,0.0,0.0,60,0.00,,,0.04,Rainwise IP-100,2013-10-06 07:33:00,
2013-10-06 03:38:00,56.7,43.0,29.47,NNW,337,1.0,3.0,61,0.00,,,0.04,Rainwise IP-100,2013-10-06 07:38:00,
2013-10-06 03:43:00,56.7,43.0,29.47,NNW,337,2.0,3.0,61,0.00,,,0.04,Rainwise IP-100,2013-10-06 07:43:00,
2013-10-06 03:49:00,56.6,43.0,29.47,NNW,337,0.0,4.0,61,0.00,,,0.04,Rainwise IP-100,2013-10-06 07:49:00,
2013-10-06 03:54:00,56.6,44.0,29.47,NW,315,0.0,3.0,63,0.00,,,0.04,Rainwise IP-100,2013-10-06 07:54:00,
2013-10-06 03:59:00,56.6,44.0,29.47,NNW,337,2.0,3.0,62,0.00,,,0.04,Rainwise IP-100,2013-10-06 07:59:00,
2013-10-06 04:04:00,56.6,43.0,29.47,NNW,337,0.0,2.0,61,0.00,,,0.04,Rainwise IP-100,2013-10-06 08:04:00,
2013-10-06 04:09:00,56.6,43.0,29.47,NNW,337,0.0,0.0,61,0.00,,,0.04,Rainwise IP-100,2013-10-06 08:09:00,
2013-10-06 04:14:00,56.5,43.0,29.47,NNW,337,0.0,0.0,61,0.06,,,0.05,Rainwise IP-100,2013-10-06 08:14:00,
2013-10-06 04:19:00,56.6,42.0,29.47,NNW,337,0.0,2.0,59,0.06,,,0.05,Rainwise IP-100,2013-10-06 08:19:00,
2013-10-06 04:25:00,56.6,43.0,29.47,West,270,4.0,4.0,61,0.00,,,0.05,Rainwise IP-100,2013-10-06 08:25:00,
2013-10-06 04:30:00,56.6,43.0,29.47,WNW,292,2.0,4.0,61,0.00,,,0.06,Rainwise IP-100,2013-10-06 08:30:00,
2013-10-06 04:35:00,56.6,43.0,29.47,NE,45,0.0,3.0,60,0.18,,,0.09,Rainwise IP-100,2013-10-06 08:35:00,
2013-10-06 04:40:00,56.2,42.0,29.47,NNW,337,0.0,3.0,61,0.36,,,0.12,Rainwise IP-100,2013-10-06 08:40:00,
2013-10-06 04:45:00,56.1,42.0,29.48,NNE,22,0.0,5.0,61,0.30,,,0.14,Rainwise IP-100,2013-10-06 08:45:00,
2013-10-06 04:50:00,55.9,43.0,29.48,NW,315,2.0,6.0,62,0.24,,,0.16,Rainwise IP-100,2013-10-06 08:50:00,
2013-10-06 04:55:00,55.9,43.0,29.48,NW,315,1.0,4.0,63,0.18,,,0.18,Rainwise IP-100,2013-10-06 08:55:00,
2013-10-06 05:00:00,55.8,43.0,29.48,WNW,292,2.0,4.0,63,0.18,,,0.19,Rainwise IP-100,2013-10-06 09:00:00,
2013-10-06 05:06:00,55.7,44.0,29.48,NW,315,4.0,6.0,64,0.12,,,0.19,Rainwise IP-100,2013-10-06 09:06:00,
2013-10-06 05:11:00,55.6,44.0,29.48,WNW,292,3.0,5.0,64,0.06,,,0.20,Rainwise IP-100,2013-10-06 09:11:00,
2013-10-06 05:16:00,55.5,44.0,29.48,NW,315,1.0,5.0,64,0.12,,,0.21,Rainwise IP-100,2013-10-06 09:16:00,
2013-10-06 05:21:00,55.4,44.0,29.49,NW,315,1.0,4.0,65,0.18,,,0.23,Rainwise IP-100,2013-10-06 09:21:00,
2013-10-06 05:26:00,55.4,44.0,29.49,NW,315,1.0,6.0,66,0.18,,,0.25,Rainwise IP-100,2013-10-06 09:26:00,
2013-10-06 05:31:00,55.3,44.0,29.49,NE,45,1.0,6.0,65,0.30,,,0.29,Rainwise IP-100,2013-10-06 09:31:00,
2013-10-06 05:36:00,55.3,43.0,29.49,NNW,337,3.0,4.0,64,0.48,,,0.32,Rainwise IP-100,2013-10-06 09:36:00,
2013-10-06 05:42:00,55.2,43.0,29.49,NNE,22,0.0,3.0,64,0.36,,,0.34,Rainwise IP-100,2013-10-06 09:42:00,
2013-10-06 05:47:00,55.1,43.0,29.49,NNE,22,0.0,5.0,64,0.18,,,0.35,Rainwise IP-100,2013-10-06 09:47:00,
2013-10-06 05:52:00,55.3,42.0,29.49,North,360,1.0,2.0,62,0.06,,,0.35,Rainwise IP-100,2013-10-06 09:52:00,
2013-10-06 05:57:00,55.2,42.0,29.49,North,360,2.0,3.0,62,0.00,,,0.35,Rainwise IP-100,2013-10-06 09:57:00,
2013-10-06 06:02:00,55.1,42.0,29.49,NE,45,0.0,3.0,61,0.00,,,0.35,Rainwise IP-100,2013-10-06 10:02:00,
2013-10-06 06:07:00,55.1,42.0,29.49,NE,45,0.0,3.0,61,0.00,,,0.35,Rainwise IP-100,2013-10-06 10:07:00,
2013-10-06 06:12:00,54.9,43.0,29.49,NNW,337,2.0,3.0,63,0.00,,,0.35,Rainwise IP-100,2013-10-06 10:12:00,
2013-10-06 06:17:00,54.9,43.0,29.49,NW,315,1.0,4.0,63,0.00,,,0.35,Rainwise IP-100,2013-10-06 10:17:00,
2013-10-06 06:23:00,54.8,42.0,29.49,NNW,337,0.0,3.0,63,0.06,,,0.36,Rainwise IP-100,2013-10-06 10:23:00,
2013-10-06 06:28:00,54.8,43.0,29.49,NW,315,2.0,3.0,64,0.06,,,0.36,Rainwise IP-100,2013-10-06 10:28:00,
2013-10-06 06:33:00,54.7,43.0,29.49,North,360,0.0,4.0,64,0.00,,,0.36,Rainwise IP-100,2013-10-06 10:33:00,
2013-10-06 06:38:00,54.7,43.0,29.49,NNW,337,2.0,6.0,64,0.36,,,0.42,Rainwise IP-100,2013-10-06 10:38:00,
2013-10-06 06:43:00,54.6,43.0,29.49,North,360,0.0,3.0,64,0.48,,,0.44,Rainwise IP-100,2013-10-06 10:43:00,
2013-10-06 06:48:00,54.5,43.0,29.49,NW,315,0.0,2.0,64,0.12,,,0.44,Rainwise IP-100,2013-10-06 10:48:00,
2013-10-06 06:53:00,54.5,43.0,29.49,NW,315,2.0,5.0,64,0.00,,,0.44,Rainwise IP-100,2013-10-06 10:53:00,
2013-10-06 06:54:00,54.5,43.0,29.49,NW,315,0.0,5.0,64,0.00,,,0.44,Rainwise IP-100,2013-10-06 10:54:00,
2013-10-06 06:59:00,54.5,43.0,29.49,NW,315,0.0,3.0,65,0.00,,,0.44,Rainwise IP-100,2013-10-06 10:59:00,
2013-10-06 07:04:00,54.6,43.0,29.50,WSW,247,3.0,3.0,66,0.00,,,0.44,Rainwise IP-100,2013-10-06 11:04:00,
2013-10-06 07:10:00,54.8,43.0,29.51,WSW,247,2.0,5.0,65,0.00,,,0.44,Rainwise IP-100,2013-10-06 11:10:00,
2013-10-06 07:15:00,54.8,43.0,29.51,WSW,247,0.0,3.0,64,0.06,,,0.45,Rainwise IP-100,2013-10-06 11:15:00,
2013-10-06 07:20:00,54.8,42.0,29.51,WSW,247,0.0,0.0,63,0.18,,,0.47,Rainwise IP-100,2013-10-06 11:20:00,
2013-10-06 07:25:00,54.8,42.0,29.51,WSW,247,0.0,0.0,63,0.24,,,0.50,Rainwise IP-100,2013-10-06 11:25:00,
2013-10-06 07:30:00,54.6,43.0,29.51,NW,315,0.0,2.0,64,0.18,,,0.50,Rainwise IP-100,2013-10-06 11:30:00,
2013-10-06 07:35:00,54.5,43.0,29.51,NW,315,0.0,0.0,64,0.06,,,0.50,Rainwise IP-100,2013-10-06 11:35:00,
2013-10-06 07:40:00,54.6,43.0,29.51,NW,315,0.0,0.0,64,0.06,,,0.51,Rainwise IP-100,2013-10-06 11:40:00,
2013-10-06 07:45:00,54.5,43.0,29.51,NW,315,0.0,3.0,64,0.06,,,0.51,Rainwise IP-100,2013-10-06 11:45:00,
2013-10-06 07:51:00,54.5,43.0,29.52,North,360,0.0,1.0,64,0.00,,,0.51,Rainwise IP-100,2013-10-06 11:51:00,
2013-10-06 07:56:00,54.6,43.0,29.52,ENE,67,1.0,3.0,64,0.00,,,0.51,Rainwise IP-100,2013-10-06 11:56:00,
2013-10-06 08:01:00,54.5,43.0,29.52,East,90,2.0,8.0,64,0.00,,,0.51,Rainwise IP-100,2013-10-06 12:01:00,
2013-10-06 08:06:00,54.4,42.0,29.52,ENE,67,2.0,8.0,63,0.00,,,0.51,Rainwise IP-100,2013-10-06 12:06:00,
2013-10-06 08:11:00,54.4,43.0,29.52,SE,135,1.0,4.0,64,0.00,,,0.51,Rainwise IP-100,2013-10-06 12:11:00,
2013-10-06 08:16:00,54.4,43.0,29.53,East,90,2.0,4.0,64,0.00,,,0.51,Rainwise IP-100,2013-10-06 12:16:00,
2013-10-06 08:21:00,54.3,41.0,29.53,East,90,2.0,5.0,63,0.00,,,0.51,Rainwise IP-100,2013-10-06 12:21:00,
2013-10-06 08:27:00,54.3,41.0,29.53,ENE,67,0.0,5.0,63,0.00,,,0.51,Rainwise IP-100,2013-10-06 12:27:00,
2013-10-06 08:32:00,54.2,41.0,29.53,East,90,2.0,7.0,63,0.00,,,0.51,Rainwise IP-100,2013-10-06 12:32:00,
2013-10-06 08:37:00,54.2,42.0,29.53,ENE,67,4.0,4.0,64,0.00,,,0.51,Rainwise IP-100,2013-10-06 12:37:00,
2013-10-06 08:42:00,54.3,41.0,29.53,ENE,67,6.0,6.0,61,0.00,,,0.51,Rainwise IP-100,2013-10-06 12:42:00,
2013-10-06 08:47:00,54.2,41.0,29.54,ENE,67,2.0,8.0,61,0.12,,,0.53,Rainwise IP-100,2013-10-06 12:47:00,
2013-10-06 08:52:00,54.1,40.0,29.53,ESE,112,4.0,7.0,60,0.24,,,0.55,Rainwise IP-100,2013-10-06 12:52:00,
2013-10-06 08:57:00,53.9,40.0,29.53,East,90,2.0,9.0,60,0.18,,,0.56,Rainwise IP-100,2013-10-06 12:57:00,
2013-10-06 09:02:00,53.8,40.0,29.53,ESE,112,1.0,7.0,61,0.12,,,0.57,Rainwise IP-100,2013-10-06 13:02:00,
2013-10-06 09:08:00,53.8,40.0,29.54,East,90,2.0,6.0,61,0.06,,,0.57,Rainwise IP-100,2013-10-06 13:08:00,
2013-10-06 09:13:00,53.8,40.0,29.54,East,90,1.0,6.0,61,0.00,,,0.57,Rainwise IP-100,2013-10-06 13:13:00,
2013-10-06 09:18:00,53.7,40.0,29.54,East,90,3.0,9.0,61,0.00,,,0.57,Rainwise IP-100,2013-10-06 13:18:00,
2013-10-06 09:23:00,53.6,40.0,29.54,East,90,5.0,6.0,61,0.00,,,0.57,Rainwise IP-100,2013-10-06 13:23:00,
2013-10-06 09:28:00,53.5,40.0,29.54,East,90,5.0,8.0,61,0.00,,,0.57,Rainwise IP-100,2013-10-06 13:28:00,
2013-10-06 09:33:00,53.2,39.0,29.54,East,90,4.0,12.0,61,0.00,,,0.57,Rainwise IP-100,2013-10-06 13:33:00,
2013-10-06 09:38:00,53.1,39.0,29.54,East,90,3.0,6.0,61,0.00,,,0.57,Rainwise IP-100,2013-10-06 13:38:00,
2013-10-06 09:44:00,52.9,39.0,29.54,NE,45,3.0,7.0,61,0.00,,,0.57,Rainwise IP-100,2013-10-06 13:44:00,
2013-10-06 09:49:00,52.6,39.0,29.54,ENE,67,6.0,8.0,61,0.00,,,0.57,Rainwise IP-100,2013-10-06 13:49:00,
2013-10-06 09:54:00,52.3,39.0,29.55,ENE,67,5.0,7.0,61,0.00,,,0.57,Rainwise IP-100,2013-10-06 13:54:00,
2013-10-06 09:59:00,52.1,39.0,29.55,ENE,67,3.0,8.0,62,0.06,,,0.58,Rainwise IP-100,2013-10-06 13:59:00,
2013-10-06 10:04:00,51.9,39.0,29.55,SE,135,6.0,7.0,62,0.06,,,0.58,Rainwise IP-100,2013-10-06 14:04:00,
2013-10-06 10:09:00,51.9,39.0,29.55,ESE,112,3.0,7.0,62,0.00,,,0.58,Rainwise IP-100,2013-10-06 14:09:00,
2013-10-06 10:14:00,51.9,39.0,29.55,ENE,67,4.0,8.0,61,0.00,,,0.58,Rainwise IP-100,2013-10-06 14:14:00,
2013-10-06 10:19:00,51.8,39.0,29.55,NE,45,3.0,7.0,61,0.00,,,0.58,Rainwise IP-100,2013-10-06 14:19:00,
2013-10-06 10:25:00,51.6,39.0,29.55,ESE,112,5.0,9.0,61,0.00,,,0.58,Rainwise IP-100,2013-10-06 14:25:00,
2013-10-06 10:30:00,51.3,38.0,29.55,ESE,112,0.0,9.0,61,0.00,,,0.58,Rainwise IP-100,2013-10-06 14:30:00,
2013-10-06 10:35:00,51.2,38.0,29.55,ENE,67,2.0,5.0,61,0.00,,,0.58,Rainwise IP-100,2013-10-06 14:35:00,
2013-10-06 10:40:00,51.1,38.0,29.55,East,90,4.0,7.0,61,0.00,,,0.58,Rainwise IP-100,2013-10-06 14:40:00,
2013-10-06 10:45:00,51.1,38.0,29.55,ENE,67,5.0,7.0,61,0.00,,,0.58,Rainwise IP-100,2013-10-06 14:45:00,
2013-10-06 10:50:00,51.0,39.0,29.55,ESE,112,4.0,7.0,62,0.00,,,0.58,Rainwise IP-100,2013-10-06 14:50:00,
2013-10-06 10:55:00,51.1,39.0,29.55,ESE,112,6.0,6.0,62,0.00,,,0.58,Rainwise IP-100,2013-10-06 14:55:00,
2013-10-06 11:01:00,51.1,39.0,29.55,SSW,202,1.0,6.0,62,0.00,,,0.58,Rainwise IP-100,2013-10-06 15:01:00,
2013-10-06 11:06:00,51.1,39.0,29.55,ESE,112,4.0,6.0,62,0.00,,,0.58,Rainwise IP-100,2013-10-06 15:06:00,
2013-10-06 11:11:00,51.0,39.0,29.55,East,90,3.0,6.0,62,0.00,,,0.58,Rainwise IP-100,2013-10-06 15:11:00,
2013-10-06 11:16:00,51.1,39.0,29.54,ENE,67,5.0,6.0,62,0.00,,,0.58,Rainwise IP-100,2013-10-06 15:16:00,
2013-10-06 11:21:00,51.1,39.0,29.55,ESE,112,2.0,6.0,62,0.00,,,0.58,Rainwise IP-100,2013-10-06 15:21:00,
2013-10-06 11:26:00,51.1,39.0,29.55,East,90,1.0,5.0,62,0.00,,,0.58,Rainwise IP-100,2013-10-06 15:26:00,
2013-10-06 11:31:00,51.2,39.0,29.55,East,90,3.0,4.0,62,0.00,,,0.58,Rainwise IP-100,2013-10-06 15:31:00,
2013-10-06 11:36:00,51.1,39.0,29.55,ESE,112,1.0,6.0,62,0.00,,,0.58,Rainwise IP-100,2013-10-06 15:36:00,
2013-10-06 11:42:00,51.3,38.0,29.55,East,90,0.0,3.0,61,0.00,,,0.58,Rainwise IP-100,2013-10-06 15:42:00,
2013-10-06 11:47:00,51.3,38.0,29.54,East,90,3.0,5.0,61,0.00,,,0.58,Rainwise IP-100,2013-10-06 15:47:00,
2013-10-06 11:52:00,51.2,38.0,29.54,East,90,3.0,6.0,61,0.00,,,0.58,Rainwise IP-100,2013-10-06 15:52:00,
2013-10-06 11:57:00,50.9,38.0,29.54,East,90,2.0,7.0,61,0.00,,,0.58,Rainwise IP-100,2013-10-06 15:57:00,
2013-10-06 12:02:00,50.7,38.0,29.54,NE,45,2.0,7.0,62,0.00,,,0.58,Rainwise IP-100,2013-10-06 16:02:00,
2013-10-06 12:07:00,50.7,38.0,29.55,East,90,3.0,4.0,62,0.00,,,0.58,Rainwise IP-100,2013-10-06 16:07:00,
2013-10-06 12:12:00,50.7,38.0,29.55,East,90,3.0,4.0,63,0.00,,,0.58,Rainwise IP-100,2013-10-06 16:12:00,
2013-10-06 12:18:00,50.6,38.0,29.54,ENE,67,3.0,6.0,63,0.00,,,0.58,Rainwise IP-100,2013-10-06 16:18:00,
2013-10-06 12:23:00,50.6,38.0,29.54,East,90,1.0,6.0,63,0.00,,,0.58,Rainwise IP-100,2013-10-06 16:23:00,
2013-10-06 12:28:00,50.7,38.0,29.54,ENE,67,3.0,6.0,63,0.00,,,0.58,Rainwise IP-100,2013-10-06 16:28:00,
2013-10-06 12:33:00,50.6,38.0,29.54,East,90,2.0,6.0,63,0.00,,,0.58,Rainwise IP-100,2013-10-06 16:33:00,
2013-10-06 12:38:00,50.6,39.0,29.54,East,90,2.0,6.0,64,0.00,,,0.58,Rainwise IP-100,2013-10-06 16:38:00,
2013-10-06 12:43:00,50.7,38.0,29.54,East,90,2.0,6.0,63,0.00,,,0.58,Rainwise IP-100,2013-10-06 16:43:00,
2013-10-06 12:48:00,50.8,38.0,29.54,East,90,0.0,3.0,63,0.06,,,0.59,Rainwise IP-100,2013-10-06 16:48:00,
2013-10-06 12:53:00,50.8,38.0,29.54,East,90,0.0,5.0,63,0.06,,,0.59,Rainwise IP-100,2013-10-06 16:53:00,
2013-10-06 12:59:00,50.8,38.0,29.54,ENE,67,2.0,4.0,63,0.00,,,0.59,Rainwise IP-100,2013-10-06 16:59:00,
2013-10-06 13:04:00,50.9,39.0,29.54,NE,45,0.0,4.0,63,0.00,,,0.59,Rainwise IP-100,2013-10-06 17:04:00,
2013-10-06 13:09:00,51.2,39.0,29.54,ENE,67,3.0,3.0,63,0.00,,,0.59,Rainwise IP-100,2013-10-06 17:09:00,
2013-10-06 13:14:00,51.3,38.0,29.54,East,90,0.0,4.0,61,0.00,,,0.59,Rainwise IP-100,2013-10-06 17:14:00,
2013-10-06 13:19:00,51.4,38.0,29.53,ESE,112,1.0,4.0,61,0.00,,,0.59,Rainwise IP-100,2013-10-06 17:19:00,
2013-10-06 13:24:00,51.3,38.0,29.53,SE,135,3.0,6.0,61,0.00,,,0.59,Rainwise IP-100,2013-10-06 17:24:00,
2013-10-06 13:29:00,51.1,39.0,29.53,East,90,3.0,4.0,62,0.00,,,0.59,Rainwise IP-100,2013-10-06 17:29:00,
2013-10-06 13:35:00,51.1,39.0,29.53,East,90,3.0,6.0,62,0.00,,,0.59,Rainwise IP-100,2013-10-06 17:35:00,
2013-10-06 13:40:00,50.9,39.0,29.53,East,90,3.0,7.0,62,0.00,,,0.59,Rainwise IP-100,2013-10-06 17:40:00,
2013-10-06 13:45:00,50.8,38.0,29.53,East,90,0.0,7.0,63,0.06,,,0.60,Rainwise IP-100,2013-10-06 17:45:00,
2013-10-06 13:50:00,50.8,38.0,29.53,East,90,3.0,5.0,62,0.06,,,0.60,Rainwise IP-100,2013-10-06 17:50:00,
2013-10-06 13:55:00,50.6,38.0,29.53,East,90,2.0,5.0,63,0.00,,,0.60,Rainwise IP-100,2013-10-06 17:55:00,
2013-10-06 14:00:00,50.5,38.0,29.52,SE,135,0.0,7.0,63,0.00,,,0.60,Rainwise IP-100,2013-10-06 18:00:00,
2013-10-06 14:05:00,50.4,38.0,29.52,ESE,112,0.0,3.0,63,0.00,,,0.60,Rainwise IP-100,2013-10-06 18:05:00,
2013-10-06 14:10:00,50.4,38.0,29.52,ESE,112,0.0,0.0,63,0.06,,,0.61,Rainwise IP-100,2013-10-06 18:10:00,
2013-10-06 14:16:00,50.4,38.0,29.52,ESE,112,0.0,0.0,63,0.12,,,0.63,Rainwise IP-100,2013-10-06 18:16:00,
2013-10-06 14:21:00,50.5,38.0,29.53,SSE,157,0.0,0.0,63,0.12,,,0.63,Rainwise IP-100,2013-10-06 18:21:00,
2013-10-06 14:26:00,50.6,38.0,29.52,SSE,157,0.0,0.0,63,0.00,,,0.63,Rainwise IP-100,2013-10-06 18:26:00,
2013-10-06 14:31:00,50.7,38.0,29.52,East,90,0.0,3.0,63,0.00,,,0.63,Rainwise IP-100,2013-10-06 18:31:00,
2013-10-06 14:36:00,50.7,38.0,29.52,ESE,112,0.0,0.0,63,0.00,,,0.63,Rainwise IP-100,2013-10-06 18:36:00,
2013-10-06 14:41:00,51.0,39.0,29.52,ESE,112,0.0,3.0,62,0.00,,,0.63,Rainwise IP-100,2013-10-06 18:41:00,
2013-10-06 14:46:00,51.1,38.0,29.52,ENE,67,0.0,3.0,61,0.00,,,0.63,Rainwise IP-100,2013-10-06 18:46:00,
2013-10-06 14:52:00,51.0,38.0,29.52,ENE,67,0.0,3.0,61,0.00,,,0.63,Rainwise IP-100,2013-10-06 18:52:00,
2013-10-06 14:57:00,51.0,38.0,29.52,East,90,2.0,2.0,61,0.00,,,0.63,Rainwise IP-100,2013-10-06 18:57:00,
2013-10-06 15:02:00,50.7,38.0,29.52,East,90,0.0,5.0,62,0.00,,,0.63,Rainwise IP-100,2013-10-06 19:02:00,
2013-10-06 15:07:00,50.7,38.0,29.52,ESE,112,2.0,2.0,62,0.00,,,0.63,Rainwise IP-100,2013-10-06 19:07:00,
2013-10-06 15:12:00,50.6,38.0,29.52,ESE,112,2.0,4.0,62,0.00,,,0.63,Rainwise IP-100,2013-10-06 19:12:00,
2013-10-06 15:17:00,50.6,38.0,29.52,ESE,112,1.0,3.0,63,0.00,,,0.63,Rainwise IP-100,2013-10-06 19:17:00,
2013-10-06 15:22:00,50.6,38.0,29.52,East,90,0.0,5.0,62,0.00,,,0.63,Rainwise IP-100,2013-10-06 19:22:00,
2013-10-06 15:27:00,50.7,38.0,29.52,East,90,0.0,2.0,63,0.00,,,0.63,Rainwise IP-100,2013-10-06 19:27:00,
2013-10-06 15:33:00,50.7,38.0,29.52,East,90,0.0,0.0,63,0.00,,,0.63,Rainwise IP-100,2013-10-06 19:33:00,
2013-10-06 15:38:00,50.8,38.0,29.52,ESE,112,0.0,3.0,62,0.00,,,0.63,Rainwise IP-100,2013-10-06 19:38:00,
2013-10-06 15:43:00,50.8,38.0,29.52,ENE,67,2.0,2.0,63,0.00,,,0.63,Rainwise IP-100,2013-10-06 19:43:00,
2013-10-06 15:48:00,50.8,38.0,29.52,East,90,0.0,4.0,63,0.00,,,0.63,Rainwise IP-100,2013-10-06 19:48:00,
2013-10-06 15:53:00,50.8,38.0,29.52,ESE,112,0.0,2.0,63,0.00,,,0.63,Rainwise IP-100,2013-10-06 19:53:00,
2013-10-06 15:58:00,50.8,38.0,29.52,SE,135,1.0,1.0,63,0.00,,,0.63,Rainwise IP-100,2013-10-06 19:58:00,
2013-10-06 16:03:00,50.8,38.0,29.52,SE,135,0.0,1.0,63,0.00,,,0.63,Rainwise IP-100,2013-10-06 20:03:00,
2013-10-06 16:09:00,50.8,38.0,29.52,ENE,67,3.0,4.0,63,0.00,,,0.63,Rainwise IP-100,2013-10-06 20:09:00,
2013-10-06 16:14:00,50.9,38.0,29.51,ENE,67,0.0,4.0,61,0.00,,,0.63,Rainwise IP-100,2013-10-06 20:14:00,
2013-10-06 16:19:00,50.9,38.0,29.51,ENE,67,0.0,0.0,61,0.00,,,0.63,Rainwise IP-100,2013-10-06 20:19:00,
2013-10-06 16:24:00,50.9,38.0,29.51,ESE,112,0.0,1.0,61,0.00,,,0.63,Rainwise IP-100,2013-10-06 20:24:00,
2013-10-06 16:29:00,50.7,38.0,29.51,ESE,112,3.0,3.0,62,0.00,,,0.63,Rainwise IP-100,2013-10-06 20:29:00,
2013-10-06 16:34:00,50.7,38.0,29.51,ESE,112,0.0,3.0,62,0.00,,,0.63,Rainwise IP-100,2013-10-06 20:34:00,
2013-10-06 16:39:00,50.7,38.0,29.51,ESE,112,0.0,2.0,62,0.00,,,0.63,Rainwise IP-100,2013-10-06 20:39:00,
2013-10-06 16:44:00,50.8,38.0,29.51,ESE,112,0.0,2.0,62,0.00,,,0.63,Rainwise IP-100,2013-10-06 20:44:00,
2013-10-06 16:50:00,50.8,38.0,29.51,ESE,112,0.0,1.0,62,0.00,,,0.63,Rainwise IP-100,2013-10-06 20:50:00,
2013-10-06 16:55:00,50.7,38.0,29.51,ESE,112,0.0,3.0,62,0.00,,,0.63,Rainwise IP-100,2013-10-06 20:55:00,
2013-10-06 17:00:00,50.7,38.0,29.51,ESE,112,0.0,1.0,62,0.00,,,0.63,Rainwise IP-100,2013-10-06 21:00:00,
2013-10-06 17:05:00,50.7,38.0,29.51,ESE,112,0.0,1.0,62,0.00,,,0.63,Rainwise IP-100,2013-10-06 21:05:00,
2013-10-06 17:10:00,50.6,38.0,29.51,ESE,112,0.0,0.0,62,0.00,,,0.63,Rainwise IP-100,2013-10-06 21:10:00,
2013-10-06 17:15:00,50.6,38.0,29.51,ESE,112,0.0,0.0,62,0.00,,,0.63,Rainwise IP-100,2013-10-06 21:15:00,
2013-10-06 17:20:00,50.5,38.0,29.51,ESE,112,0.0,0.0,62,0.00,,,0.63,Rainwise IP-100,2013-10-06 21:20:00,
2013-10-06 17:26:00,50.5,38.0,29.51,ESE,112,0.0,0.0,62,0.00,,,0.63,Rainwise IP-100,2013-10-06 21:26:00,
2013-10-06 17:31:00,50.5,38.0,29.51,ESE,112,0.0,0.0,62,0.00,,,0.63,Rainwise IP-100,2013-10-06 21:31:00,
2013-10-06 17:36:00,50.4,38.0,29.50,ESE,112,0.0,0.0,62,0.00,,,0.63,Rainwise IP-100,2013-10-06 21:36:00,
2013-10-06 17:41:00,50.5,38.0,29.50,ESE,112,0.0,1.0,61,0.00,,,0.63,Rainwise IP-100,2013-10-06 21:41:00,
2013-10-06 17:46:00,50.5,38.0,29.50,ESE,112,0.0,0.0,62,0.06,,,0.64,Rainwise IP-100,2013-10-06 21:46:00,
2013-10-06 17:51:00,50.5,38.0,29.50,ESE,112,0.0,0.0,62,0.06,,,0.64,Rainwise IP-100,2013-10-06 21:51:00,
2013-10-06 17:56:00,50.5,38.0,29.50,ENE,67,0.0,2.0,62,0.00,,,0.64,Rainwise IP-100,2013-10-06 21:56:00,
2013-10-06 18:01:00,50.3,38.0,29.50,East,90,0.0,2.0,63,0.00,,,0.64,Rainwise IP-100,2013-10-06 22:01:00,
2013-10-06 18:07:00,50.2,38.0,29.50,East,90,0.0,0.0,63,0.00,,,0.64,Rainwise IP-100,2013-10-06 22:07:00,
2013-10-06 18:12:00,50.2,38.0,29.50,East,90,0.0,0.0,63,0.00,,,0.64,Rainwise IP-100,2013-10-06 22:12:00,
2013-10-06 18:17:00,50.1,38.0,29.50,East,90,0.0,0.0,63,0.00,,,0.64,Rainwise IP-100,2013-10-06 22:17:00,
2013-10-06 18:22:00,50.1,38.0,29.50,SE,135,0.0,0.0,63,0.00,,,0.64,Rainwise IP-100,2013-10-06 22:22:00,
2013-10-06 18:27:00,50.0,38.0,29.50,SE,135,0.0,0.0,63,0.00,,,0.64,Rainwise IP-100,2013-10-06 22:27:00,
2013-10-06 18:32:00,49.9,38.0,29.50,SE,135,0.0,0.0,63,0.00,,,0.64,Rainwise IP-100,2013-10-06 22:32:00,
2013-10-06 18:37:00,49.9,38.0,29.50,SE,135,0.0,0.0,63,0.00,,,0.64,Rainwise IP-100,2013-10-06 22:37:00,
2013-10-06 18:43:00,49.9,38.0,29.50,SE,135,0.0,0.0,63,0.00,,,0.64,Rainwise IP-100,2013-10-06 22:43:00,
2013-10-06 18:48:00,49.9,38.0,29.50,SE,135,0.0,0.0,63,0.00,,,0.64,Rainwise IP-100,2013-10-06 22:48:00,
2013-10-06 18:53:00,49.9,38.0,29.50,SE,135,0.0,0.0,63,0.00,,,0.64,Rainwise IP-100,2013-10-06 22:53:00,
2013-10-06 18:58:00,49.9,38.0,29.50,SE,135,0.0,0.0,63,0.00,,,0.64,Rainwise IP-100,2013-10-06 22:58:00,
2013-10-06 19:03:00,50.0,38.0,29.49,SE,135,0.0,0.0,63,0.00,,,0.64,Rainwise IP-100,2013-10-06 23:03:00,
2013-10-06 19:08:00,49.9,38.0,29.49,SE,135,0.0,0.0,63,0.00,,,0.64,Rainwise IP-100,2013-10-06 23:08:00,
2013-10-06 19:13:00,50.2,37.0,29.49,SE,135,0.0,0.0,62,0.00,,,0.64,Rainwise IP-100,2013-10-06 23:13:00,
2013-10-06 19:18:00,50.2,37.0,29.50,SE,135,0.0,0.0,62,0.00,,,0.64,Rainwise IP-100,2013-10-06 23:18:00,
2013-10-06 19:24:00,50.2,37.0,29.49,SE,135,0.0,0.0,62,0.00,,,0.64,Rainwise IP-100,2013-10-06 23:24:00,
2013-10-06 19:29:00,50.1,38.0,29.49,SE,135,0.0,0.0,63,0.00,,,0.64,Rainwise IP-100,2013-10-06 23:29:00,
2013-10-06 19:34:00,50.1,38.0,29.50,SE,135,0.0,0.0,63,0.06,,,0.65,Rainwise IP-100,2013-10-06 23:34:00,
2013-10-06 19:39:00,50.1,38.0,29.50,SE,135,0.0,0.0,63,0.06,,,0.65,Rainwise IP-100,2013-10-06 23:39:00,
2013-10-06 19:44:00,50.1,38.0,29.50,SE,135,0.0,0.0,63,0.00,,,0.65,Rainwise IP-100,2013-10-06 23:44:00,
2013-10-06 19:49:00,50.1,38.0,29.50,SE,135,0.0,0.0,64,0.00,,,0.65,Rainwise IP-100,2013-10-06 23:49:00,
2013-10-06 19:54:00,50.2,38.0,29.50,SE,135,0.0,0.0,64,0.00,,,0.65,Rainwise IP-100,2013-10-06 23:54:00,
2013-10-06 20:00:00,50.2,38.0,29.50,SE,135,0.0,0.0,63,0.00,,,0.65,Rainwise IP-100,2013-10-07 00:00:00,
2013-10-06 20:05:00,50.2,38.0,29.50,SE,135,0.0,0.0,64,0.00,,,0.65,Rainwise IP-100,2013-10-07 00:05:00,
2013-10-06 20:10:00,50.2,38.0,29.50,SE,135,0.0,0.0,64,0.06,,,0.66,Rainwise IP-100,2013-10-07 00:10:00,
2013-10-06 20:15:00,50.2,38.0,29.50,SE,135,0.0,0.0,64,0.06,,,0.66,Rainwise IP-100,2013-10-07 00:15:00,
2013-10-06 20:20:00,50.2,38.0,29.50,SE,135,0.0,0.0,64,0.00,,,0.66,Rainwise IP-100,2013-10-07 00:20:00,
2013-10-06 20:25:00,50.2,38.0,29.50,SE,135,0.0,0.0,64,0.00,,,0.66,Rainwise IP-100,2013-10-07 00:25:00,
2013-10-06 20:30:00,50.2,38.0,29.49,SE,135,0.0,0.0,64,0.00,,,0.66,Rainwise IP-100,2013-10-07 00:30:00,
2013-10-06 20:35:00,50.2,38.0,29.50,SE,135,0.0,0.0,64,0.00,,,0.66,Rainwise IP-100,2013-10-07 00:35:00,
2013-10-06 20:41:00,50.5,38.0,29.49,SE,135,0.0,0.0,62,0.00,,,0.66,Rainwise IP-100,2013-10-07 00:41:00,
2013-10-06 20:46:00,50.5,38.0,29.49,SE,135,0.0,0.0,62,0.00,,,0.66,Rainwise IP-100,2013-10-07 00:46:00,
2013-10-06 20:51:00,50.4,38.0,29.49,SE,135,0.0,0.0,62,0.00,,,0.66,Rainwise IP-100,2013-10-07 00:51:00,
2013-10-06 20:56:00,50.4,38.0,29.49,SE,135,0.0,0.0,62,0.06,,,0.67,Rainwise IP-100,2013-10-07 00:56:00,
2013-10-06 21:01:00,50.3,38.0,29.49,SE,135,0.0,0.0,63,0.06,,,0.67,Rainwise IP-100,2013-10-07 01:01:00,
2013-10-06 21:06:00,50.3,38.0,29.49,SE,135,0.0,0.0,63,0.00,,,0.67,Rainwise IP-100,2013-10-07 01:06:00,
2013-10-06 21:11:00,50.3,38.0,29.49,SE,135,0.0,0.0,63,0.00,,,0.67,Rainwise IP-100,2013-10-07 01:11:00,
2013-10-06 21:17:00,50.3,38.0,29.49,SE,135,0.0,0.0,63,0.00,,,0.67,Rainwise IP-100,2013-10-07 01:17:00,
2013-10-06 21:22:00,50.3,38.0,29.49,SE,135,0.0,0.0,63,0.00,,,0.67,Rainwise IP-100,2013-10-07 01:22:00,
2013-10-06 21:27:00,50.4,38.0,29.49,SE,135,0.0,0.0,63,0.00,,,0.67,Rainwise IP-100,2013-10-07 01:27:00,
2013-10-06 21:32:00,50.4,38.0,29.49,SE,135,0.0,0.0,63,0.00,,,0.67,Rainwise IP-100,2013-10-07 01:32:00,
2013-10-06 21:37:00,50.4,38.0,29.49,SE,135,0.0,0.0,63,0.00,,,0.67,Rainwise IP-100,2013-10-07 01:37:00,
2013-10-06 21:42:00,50.4,38.0,29.49,SE,135,0.0,0.0,63,0.00,,,0.67,Rainwise IP-100,2013-10-07 01:42:00,
2013-10-06 21:47:00,50.4,38.0,29.49,SE,135,0.0,0.0,63,0.00,,,0.67,Rainwise IP-100,2013-10-07 01:47:00,
2013-10-06 21:52:00,50.4,38.0,29.49,SE,135,0.0,0.0,63,0.06,,,0.68,Rainwise IP-100,2013-10-07 01:52:00,
2013-10-06 21:58:00,50.5,38.0,29.49,SE,135,0.0,0.0,63,0.06,,,0.68,Rainwise IP-100,2013-10-07 01:58:00,
2013-10-06 22:03:00,50.4,38.0,29.49,SE,135,0.0,0.0,63,0.00,,,0.68,Rainwise IP-100,2013-10-07 02:03:00,
2013-10-06 22:08:00,50.4,38.0,29.49,SE,135,0.0,0.0,63,0.00,,,0.68,Rainwise IP-100,2013-10-07 02:08:00,
2013-10-06 22:13:00,50.6,38.0,29.49,SE,135,0.0,0.0,62,0.00,,,0.68,Rainwise IP-100,2013-10-07 02:13:00,
2013-10-06 22:18:00,50.7,38.0,29.48,SE,135,0.0,0.0,62,0.00,,,0.68,Rainwise IP-100,2013-10-07 02:18:00,
2013-10-06 22:23:00,50.7,38.0,29.48,SE,135,0.0,0.0,62,0.00,,,0.68,Rainwise IP-100,2013-10-07 02:23:00,
2013-10-06 22:28:00,50.5,38.0,29.48,SE,135,0.0,0.0,63,0.00,,,0.68,Rainwise IP-100,2013-10-07 02:28:00,
2013-10-06 22:34:00,50.5,39.0,29.48,SE,135,0.0,0.0,64,0.00,,,0.68,Rainwise IP-100,2013-10-07 02:34:00,
2013-10-06 22:39:00,50.6,39.0,29.48,SE,135,0.0,0.0,64,0.00,,,0.68,Rainwise IP-100,2013-10-07 02:39:00,
2013-10-06 22:44:00,50.6,39.0,29.48,SE,135,0.0,0.0,64,0.00,,,0.68,Rainwise IP-100,2013-10-07 02:44:00,
2013-10-06 22:49:00,50.6,39.0,29.48,SE,135,0.0,0.0,65,0.00,,,0.68,Rainwise IP-100,2013-10-07 02:49:00,
2013-10-06 22:54:00,50.7,39.0,29.48,SE,135,0.0,0.0,65,0.00,,,0.68,Rainwise IP-100,2013-10-07 02:54:00,
2013-10-06 22:59:00,50.7,39.0,29.48,SE,135,0.0,0.0,65,0.00,,,0.68,Rainwise IP-100,2013-10-07 02:59:00,
2013-10-06 23:04:00,50.7,39.0,29.47,SE,135,0.0,0.0,65,0.06,,,0.69,Rainwise IP-100,2013-10-07 03:04:00,
2013-10-06 23:09:00,50.6,39.0,29.47,SE,135,0.0,0.0,65,0.06,,,0.69,Rainwise IP-100,2013-10-07 03:09:00,
2013-10-06 23:15:00,50.7,39.0,29.47,SE,135,0.0,0.0,65,0.00,,,0.69,Rainwise IP-100,2013-10-07 03:15:00,
2013-10-06 23:20:00,50.7,39.0,29.47,SE,135,0.0,0.0,65,0.00,,,0.69,Rainwise IP-100,2013-10-07 03:20:00,
2013-10-06 23:25:00,50.6,39.0,29.47,SE,135,0.0,0.0,65,0.00,,,0.69,Rainwise IP-100,2013-10-07 03:25:00,
2013-10-06 23:30:00,50.7,39.0,29.47,SE,135,0.0,0.0,66,0.00,,,0.69,Rainwise IP-100,2013-10-07 03:30:00,
2013-10-06 23:35:00,50.7,39.0,29.47,SE,135,0.0,0.0,66,0.00,,,0.69,Rainwise IP-100,2013-10-07 03:35:00,
2013-10-06 23:40:00,50.9,39.0,29.46,SE,135,0.0,0.0,63,0.00,,,0.69,Rainwise IP-100,2013-10-07 03:40:00,
2013-10-06 23:45:00,50.9,39.0,29.46,SE,135,0.0,0.0,63,0.00,,,0.69,Rainwise IP-100,2013-10-07 03:45:00,
2013-10-06 23:51:00,50.9,39.0,29.46,SE,135,0.0,0.0,63,0.00,,,0.69,Rainwise IP-100,2013-10-07 03:51:00,
2013-10-06 23:56:00,50.9,39.0,29.46,SE,135,0.0,0.0,63,0.00,,,0.69,Rainwise IP-100,2013-10-07 03:56:00,